Карточка аэропорта UERP

Внимание!
Информация на этой странице в стадии наполнения.
Если вы не увидели какой-то информации, или заметили неточность - пожалуйста сообщите нам!
Спасибо!
Команда RU-STAFF
Название аэропортаПолярный
Название аэропорта (англ.)Poliarny
Превышение1673 ft. (509.9 m.)
Координаты66°23.85', 112°2.0999999999998'
Высота перехода700m
Эшелон переходаQFE>=714mm:FL050; QFE<714=>687:FL060; QFE<687:FL070
Коды ответчика1000
Зона ОрВДЯкутск РПИ (UEEE)
Данные METARUERP 280430Z 18001MPS CAVOK M15/M19 Q1018 R35/450340 NOSIG RMK QFE719
Проноз погоды (TAF)UERP 280200Z 2803/2903 19003G08MPS 6000 BKN020 OVC100 TEMPO 2803/2812 2100 -SHSN BR SCT009 BKN013CB OVC100 TEMPO 2812/2824 3000 -SHSN SCT007 BKN013CB OVC100
NOTAMshow/hide NOTAM
AWOS   TABLE

Информация о ВПП

ВПП Длина ВПП (м.) Покрытие Курс ВПП Частота ILS
173100Железобетон173 
353100Железобетон353108.1

Диспетчерские позиции

Позывной Наименование органа УВД Частота
UERP_CTRПолярный-Контроль132.1
UERP_TWRПолярный-Вышка124.200



Спутниковое изображение